User: anonymous   Login
Location: DaltonSkyGazer Observatory
(42.4858°N, 73.1565°W)
Time: 03:25:43
(UTC-05:00)
Language:

Helios 1B - Orbit

View from above orbital plane
View from above orbital plane
View from above satellite
View from above satellite

Ground track
Ground track

The orbit data is extracted from the following two-line orbital elements,

1 25977U 99064A   17022.41468278  .00000177  00000-0  29167-4 0  9994
2 25977  98.1413 131.3624 0002247  66.4120 293.7328 14.82203258922419
Epoch (UTC): 22 January 2017 09:57:08
Eccentricity: 0.0002247
inclination: 98.1413°
perigee height: 621 km
apogee height: 624 km
right ascension of ascending node: 131.3624°
argument of perigee: 66.4120°
revolutions per day: 14.82203258
mean anomaly at epoch: 293.7328°
orbit number at epoch: 92241

The dashed part of the orbit path shows where the satellite is in the earth's shadow,  

DLR